Weather observations for the past three days for
Andrews-Murphy Airport
Imperial (Metric)
Date Time (edt) Wind (mph) Vis. (mi.) Weather Sky Cond. Temperature (ºF) Relative Humidity Wind Chill (°F) Heat Index (°F) Pressure Precipitation (in)
Air Dwpt 6 hour altimeter (in) sea level (mb) 1 hr 3 hr 6 hr
Max. Min.
22 13:29 W 7 10.00 Partly Cloudy SCT060 82.6 68.4 62% 86 30.1 0.0
22 13:09 W 6 10.00 Partly Cloudy SCT060 SCT080 81 68.2 65% 84 30.11 0.0
22 12:49 W 5 10.00 Partly Cloudy SCT080 79.5 66.2 64% 82 30.12 0.0
22 12:29 W 3 10.00 Partly Cloudy SCT070 79 67.6 68% 81 30.12 0.0
22 12:09 W 5 10.00 Partly Cloudy SCT050 SCT070 78.6 66.7 67% 81 30.12 0.0
22 11:49 W 6 10.00 Mostly Cloudy BKN060 BKN065 77.4 68 73% 79 30.13 0.0
22 11:29 W 7 10.00 Mostly Cloudy SCT017 SCT044 BKN060 77.9 68.9 74% 80 30.13 0.0
22 11:09 W 3 10.00 Mostly Cloudy SCT017 BKN044 BKN050 76.3 68 76% 78 30.13 0.0
22 10:49 Calm 10.00 Mostly Cloudy SCT013 SCT034 BKN046 75.7 68.2 77% 77 30.13 0.0
22 10:29 Calm 10.00 Mostly Cloudy SCT013 SCT025 BKN038 74.3 68.2 81% 30.12 0.0
22 10:09 Calm 10.00 Partly Cloudy SCT040 73.6 67.1 80% 30.13 0.0
22 09:49 Calm 10.00 Mostly Cloudy BKN027 BKN040 71.6 67.5 87% 30.12 0.0
22 09:29 Calm 10.00 Overcast SCT017 BKN023 OVC029 70.7 67.6 90% 30.13 0.0
22 09:09 Calm 10.00 Overcast BKN019 OVC027 69.3 66.9 92% 30.13 0.0
22 08:49 Calm 10.00 Overcast SCT019 BKN025 OVC043 68.9 67.3 95% 30.12 0.0
22 08:29 Calm 10.00 Overcast SCT005 BKN019 OVC035 68.5 67.1 95% 30.12 0.0
22 08:09 Calm 10.00 Overcast SCT004 BKN019 OVC034 68.2 67.1 96% 30.11 0.0
22 07:49 Calm 10.00 Overcast SCT004 OVC019 68 66.6 95% 30.1 0.0
22 07:29 Calm 10.00 Overcast SCT003 OVC019 67.6 66.4 96% 30.1 0.0
22 07:09 Calm 10.00 Overcast SCT003 BKN019 OVC030 67.6 66.4 96% 30.1 0.0
22 06:49 Calm 10.00 Overcast SCT021 BKN027 OVC050 67.5 66.2 96% 30.11 0.0
22 06:29 Calm 10.00 Overcast OVC021 67.5 66.2 96% 30.1 0.0
22 06:09 Calm 10.00 Overcast OVC021 67.3 66.2 96% 30.09 0.0
22 05:49 Calm 10.00 Mostly Cloudy SCT021 SCT031 BKN110 67.1 65.7 95% 30.09 0.0
22 05:29 NE 3 10.00 Mostly Cloudy SCT008 SCT022 BKN110 67.3 66 96% 30.09 0.0
22 05:09 Calm 10.00 Overcast SCT021 BKN026 OVC090 67.5 66.2 96% 30.09 0.0
22 04:49 Calm 10.00 Overcast BKN023 OVC033 67.6 66.2 95% 30.09 0.0
22 04:29 Calm 10.00 Overcast OVC023 67.5 66.2 96% 30.09 0.0
22 04:09 Calm 10.00 Overcast BKN025 BKN033 OVC043 67.5 66.2 96% 30.09 0.0
22 03:49 Calm 10.00 Overcast SCT023 BKN035 OVC060 67.3 66.2 96% 30.09 0.0 0.01
22 03:29 Calm 7.00 Light Rain OVC025 67.6 66.4 96% 30.1 0.0 0.01
22 03:09 NE 3 10.00 Overcast SCT004 BKN025 OVC034 67.3 66.2 96% 30.1 0.0
22 02:49 Calm 10.00 Overcast BKN004 OVC027 67.3 66 96% 30.11 0.0
22 02:29 Calm 10.00 Overcast SCT004 OVC029 67.6 66.4 96% 30.12 0.0
22 02:09 Calm 10.00 Overcast SCT004 OVC031 68 66.6 95% 30.11 0.0
22 01:29 Calm 10.00 Mostly Cloudy SCT033 SCT039 BKN050 68 66.6 95% 30.12 0.0
22 00:49 Calm 10.00 Partly Cloudy SCT050 68.2 66.7 95% 30.12 0.0
22 00:29 Calm 10.00 Partly Cloudy SCT004 SCT042 SCT048 68.2 66.7 95% 30.12 0.0
22 00:09 NE 3 10.00 Overcast SCT004 BKN042 OVC050 68.4 67.1 96% 30.12 0.0
21 23:49 Calm 7.00 Mostly Cloudy SCT003 SCT026 BKN049 68.2 67.1 96% 30.13 0.0
21 23:29 Calm 10.00 Partly Cloudy SCT003 SCT026 SCT041 68.5 67.3 96% 30.13 0.0
21 23:09 Calm 10.00 Mostly Cloudy SCT023 SCT030 BKN036 68.9 67.6 96% 30.13 0.0
21 22:49 Calm 10.00 Mostly Cloudy BKN023 BKN030 BKN045 69.3 68 96% 30.12 0.0
21 22:29 N 3 10.00 Mostly Cloudy SCT027 SCT034 BKN060 68.9 67.6 96% 30.13 0.0
21 22:09 Calm 10.00 Overcast SCT004 BKN045 OVC060 68.9 67.3 95% 30.13 0.0
21 21:49 Calm 5.00 Light Rain SCT006 BKN028 OVC060 68.9 66.9 93% 30.12 0.0 0.22
21 21:29 W 3 10.00 Overcast SCT022 OVC030 68.9 66.6 92% 30.12 0.0
21 21:09 W 5 10.00 Mostly Cloudy BKN030 BKN041 69.4 67.1 92% 30.09 0.0
21 20:49 NW 3 10.00 Partly Cloudy SCT032 SCT041 69.8 66.9 91% 30.09 0.0
21 20:29 N 3 10.00 Fair CLR 69.8 67.1 91% 30.1 0.0
21 20:09 Calm 10.00 Partly Cloudy SCT041 SCT050 SCT080 70.7 67.5 90% 30.09 0.0
21 19:49 Calm 2.00 Light Rain SCT039 BKN055 OVC090 70.5 67.5 90% 30.09 0.0 0.13
21 19:29 W 12 G 17 10.00 Rain SCT037 SCT060 OVC100 72.1 66 81% 30.08 0.0
21 19:09 NW 5 10.00 Light Rain SCT036 SCT070 OVC090 75.4 67.1 76% 77 30.05 0.0
21 18:49 W 7 10.00 Light Rain SCT080 BKN100 80.2 71.6 75% 84 30.05 0.0
21 18:29 Calm 10.00 Fair CLR 81.5 70 68% 85 30.05 0.0
21 18:09 Calm 10.00 Fair CLR 81.7 69.1 66% 85 30.05 0.0
21 17:49 W 3 10.00 Fair CLR 81.7 69.3 66% 85 30.04 0.0
21 17:29 W 5 10.00 Fair CLR 82.6 68.4 62% 86 30.04 0.0
21 17:09 W 5 10.00 Fair CLR 82.8 67.1 59% 85 30.04 0.0
21 16:49 W 6 10.00 Fair CLR 83.3 67.6 59% 86 30.04 0.0
21 16:29 W 7 10.00 Fair CLR 84 68.5 60% 87 30.05 0.0
21 16:09 W 5 10.00 Fair CLR 85.3 67.1 55% 88 30.06 0.0
21 15:49 W 7 10.00 Fair CLR 85.1 66.2 53% 87 30.07 0.0
21 15:29 W 6 10.00 Fair CLR 85.3 68.2 57% 89 30.07 0.0
21 15:09 SW 3 10.00 Fair CLR 82.8 67.8 61% 86 30.07 0.0
21 14:49 W 5 10.00 Fair CLR 84.2 68 58% 87 30.08 0.0
21 14:29 Calm 10.00 Fair CLR 82.9 68.4 62% 86 30.09 0.0
21 14:09 W 5 10.00 Fair CLR 83.3 66.7 58% 86 30.09 0.0
21 13:49 Calm 10.00 Fair CLR 82 68.9 65% 85 30.11 0.0
21 13:29 Calm 10.00 Partly Cloudy SCT034 SCT042 SCT050 79.9 67.5 66% 82 30.12 0.0
21 13:09 W 6 10.00 Mostly Cloudy SCT026 SCT043 BKN080 81 68.7 66% 84 30.13 0.0
21 12:49 NW 5 10.00 Mostly Cloudy SCT046 SCT055 BKN080 80.2 68.5 68% 83 30.14 0.0
21 12:29 W 6 10.00 Partly Cloudy SCT038 SCT046 SCT070 81.1 69.3 67% 84 30.14 0.0
21 12:09 W 6 10.00 Partly Cloudy SCT038 SCT049 SCT060 80.6 68.7 67% 84 30.14 0.0
21 11:49 Calm 10.00 Overcast SCT017 BKN029 OVC050 78.4 68.4 71% 81 30.14 0.0
21 11:29 Calm 10.00 Overcast SCT015 BKN027 OVC038 78.1 68.7 73% 80 30.14 0.0
21 11:09 Calm 10.00 Overcast BKN029 BKN041 OVC050 76.1 68 76% 77 30.14 0.0
21 10:49 Calm 10.00 Overcast OVC032 75.2 67.3 77% 76 30.14 0.0
21 10:29 E 3 10.00 Mostly Cloudy SCT033 BKN050 74.5 67.5 79% 30.14 0.0
21 10:09 NE 3 10.00 Mostly Cloudy SCT021 BKN035 BKN045 73.4 68.4 84% 30.14 0.0
21 09:49 Calm 10.00 Mostly Cloudy BKN021 BKN110 71.4 68.7 91% 30.14 0.0
21 09:29 Calm 10.00 Mostly Cloudy SCT004 BKN021 BKN035 70.3 67.5 91% 30.14 0.0
21 09:09 Calm 10.00 Overcast SCT004 OVC021 69.4 67.3 93% 30.14 0.0
21 08:49 Calm 10.00 Overcast BKN004 OVC021 69.1 68 96% 30.15 0.0
21 08:29 Calm 10.00 Overcast BKN021 OVC029 68.9 67.5 95% 30.15 0.0
21 08:09 Calm 10.00 Overcast OVC021 68.9 67.5 95% 30.14 0.0
21 07:49 Calm 10.00 Overcast OVC023 68.4 67.1 96% 30.14 0.0 0.01
21 07:29 Calm 10.00 Overcast OVC025 68 66.6 95% 30.13 0.0 0.01
21 07:09 Calm 10.00 Rain SCT008 BKN023 OVC028 67.6 66.4 96% 30.13 0.0 0.01
21 06:49 Calm 7.00 Light Rain SCT010 BKN030 OVC043 67.6 66.2 95% 30.13 0.0 0.33
21 06:29 Calm 2.50 Rain SCT017 BKN027 OVC060 67.6 66.4 96% 30.14 0.0 0.3
21 06:09 W 3 7.00 Heavy Rain SCT005 BKN025 OVC041 67.6 66.4 96% 30.14 0.0 0.02
21 05:49 Calm 7.00 Rain SCT003 BKN050 OVC065 67.5 66.2 96% 30.13 0.0 0.01
21 05:29 Calm 10.00 Overcast SCT045 OVC055 67.5 66.2 96% 30.13 0.0
21 05:09 Calm 10.00 Partly Cloudy SCT055 67.1 65.8 96% 30.12 0.0
21 04:49 Calm 10.00 Partly Cloudy SCT033 67.3 66.2 96% 30.11 0.0
21 04:29 Calm 10.00 Mostly Cloudy BKN029 BKN036 67.5 66.2 96% 30.12 0.0
21 04:09 Calm 10.00 Overcast BKN027 OVC033 68 66.6 95% 30.13 0.0
21 03:49 Calm 10.00 Overcast OVC024 68.2 66.7 95% 30.13 0.0
21 03:29 Calm 10.00 Light Drizzle OVC026 68 66.6 95% 30.14 0.0
21 03:09 Calm 10.00 Overcast OVC028 68 66.7 96% 30.14 0.0
21 02:49 Calm 7.00 Heavy Rain BKN028 OVC042 68 66.6 95% 30.15 0.0 0.02
21 02:29 Calm 10.00 Overcast BKN030 BKN044 OVC055 67.5 66.2 96% 30.15 0.0
21 02:09 Calm 10.00 Mostly Cloudy SCT050 BKN090 67.3 66 96% 30.15 0.0
21 01:49 Calm 10.00 Mostly Cloudy SCT034 SCT050 BKN090 67.1 65.8 96% 30.15 0.0
21 01:29 Calm 10.00 Overcast SCT038 SCT046 OVC090 67.6 66.2 95% 30.14 0.0
21 01:09 Calm 10.00 Overcast SCT048 BKN050 OVC090 67.8 66.4 95% 30.15 0.0
21 00:49 Calm 10.00 Overcast SCT027 BKN048 OVC050 68 66.6 95% 30.15 0.0
21 00:29 Calm 10.00 Overcast SCT029 BKN042 OVC085 68 66.4 95% 30.15 0.0
21 00:09 Calm 10.00 Overcast SCT029 BKN037 OVC085 68.2 66.7 95% 30.15 0.0
20 23:49 Calm 10.00 Overcast BKN035 OVC041 68 66.7 96% 30.15 0.0
20 23:29 Calm 10.00 Mostly Cloudy BKN035 68 66.4 95% 30.16 0.0
20 23:09 Calm 10.00 Partly Cloudy SCT037 68 66.4 95% 30.16 0.0
20 22:49 Calm 10.00 Partly Cloudy SCT085 68 65.7 92% 30.15 0.0
20 22:29 Calm 10.00 Mostly Cloudy BKN085 68.4 66.2 93% 30.15 0.0
20 22:09 Calm 10.00 Fair CLR 69.1 66.6 92% 30.15 0.0
20 21:49 Calm 10.00 Fair CLR 69.6 66.6 90% 30.14 0.0
20 21:29 Calm 10.00 Fair CLR 70.7 67.3 89% 30.13 0.0
20 21:09 Calm 10.00 Fair CLR 71.8 67.6 87% 30.13 0.0
20 20:49 Calm 10.00 Fair CLR 73.4 67.6 82% 30.13 0.0
20 20:29 Calm 10.00 Partly Cloudy SCT080 74.3 67.8 80% 30.12 0.0
20 20:09 Calm 10.00 Partly Cloudy SCT080 77 68.4 75% 79 30.12 0.0
20 19:49 Calm 10.00 Fair CLR 78.8 67.3 68% 81 30.12 0.0
20 19:29 W 3 10.00 Partly Cloudy SCT090 80.2 66.6 63% 82 30.11 0.0
20 19:09 Calm 10.00 Mostly Cloudy BKN090 79.3 66.7 65% 82 30.11 0.0
20 18:49 Calm 10.00 Partly Cloudy SCT090 79.3 66.9 66% 82 30.11 0.0
20 18:29 SW 3 10.00 Partly Cloudy SCT029 SCT075 80.8 65.3 59% 83 30.1 0.0
20 18:09 W 5 10.00 Partly Cloudy SCT075 81.3 67.1 62% 84 30.11 0.0
20 17:49 W 5 10.00 Fair CLR 81.5 66.9 61% 84 30.12 0.0
20 17:29 W 5 10.00 Fair CLR 79.9 67.6 66% 82 30.12 0.0
20 17:09 W 6 10.00 Partly Cloudy SCT026 SCT075 79.2 67.8 68% 82 30.13 0.0
20 16:49 W 6 10.00 Partly Cloudy SCT026 SCT055 SCT070 80.4 67.6 65% 83 30.14 0.0
20 16:29 W 5 10.00 Mostly Cloudy SCT055 BKN070 79 66.2 65% 81 30.14 0.0
20 16:09 W 5 10.00 Partly Cloudy SCT065 79.5 67.1 66% 82 30.14 0.0
20 15:49 W 6 10.00 Mostly Cloudy BKN065 78.8 67.1 67% 81 30.14 0.0
20 15:29 SW 3 10.00 Partly Cloudy SCT065 78.6 67.3 68% 81 30.14 0.0
20 15:09 Calm 10.00 Fair CLR 77.4 67.6 72% 79 30.14 0.0
20 14:49 Calm 10.00 Partly Cloudy SCT042 SCT048 SCT065 76.1 67.8 76% 77 30.15 0.0
20 14:29 NW 6 10.00 Light Rain SCT033 SCT046 OVC060 75.4 66.9 75% 77 30.15 0.0
20 14:09 SW 3 10.00 Overcast SCT025 BKN044 OVC080 77.9 67.1 70% 80 30.15 0.0
20 13:49 SW 5 10.00 Mostly Cloudy SCT027 SCT038 BKN055 79 66.2 65% 81 30.16 0.0
20 13:29 W 5 10.00 Partly Cloudy SCT027 SCT036 SCT090 79.5 66.7 65% 82 30.16 0.0
20 13:09 W 6 10.00 Mostly Cloudy SCT027 SCT037 BKN090 79.5 66.7 65% 82 30.17 0.0
20 12:49 SW 5 10.00 Mostly Cloudy SCT029 SCT040 BKN065 79.3 66.4 65% 81 30.18 0.0
20 12:29 SW 7 10.00 Mostly Cloudy SCT060 SCT070 BKN120 79.7 66.9 65% 82 30.19 0.0
20 12:09 W 7 10.00 Partly Cloudy SCT035 SCT120 78.8 68.2 70% 81 30.19 0.0
20 11:49 W 7 10.00 Mostly Cloudy SCT022 BKN028 BKN035 77.2 66.9 71% 79 30.19 0.0
20 11:29 Calm 10.00 Partly Cloudy SCT016 SCT020 SCT025 77 66.6 70% 79 30.19 0.0
20 11:09 Calm 10.00 Partly Cloudy SCT120 75.7 66.7 74% 77 30.18 0.0
20 10:49 Calm 10.00 Overcast SCT011 BKN090 OVC120 73.6 66.6 79% 30.19 0.0
20 10:29 Calm 10.00 Overcast SCT025 OVC090 71.8 66.4 83% 30.19 0.0
20 10:09 Calm 10.00 Overcast SCT009 SCT027 OVC090 71.2 66.4 85% 30.19 0.0
20 09:49 Calm 10.00 Overcast BKN009 BKN036 OVC050 70.5 66.6 87% 30.19 0.0
20 09:29 Calm 10.00 Overcast BKN007 BKN021 OVC036 68.9 66.9 93% 30.19 0.0
20 09:09 Calm 7.00 Light Rain BKN007 BKN020 OVC026 68.4 66.6 94% 30.19 0.0
20 08:49 Calm 3.00 Rain SCT003 BKN022 OVC027 68 66.4 95% 30.19 0.0 0.02
20 08:29 Calm 7.00 Overcast BKN003 OVC023 68 66.6 95% 30.19 0.0
20 08:09 Calm 10.00 Overcast SCT003 OVC027 67.5 66.2 96% 30.18 0.0
20 07:49 Calm 10.00 Overcast SCT003 BKN029 OVC046 67.1 65.8 96% 30.17 0.0
20 07:29 Calm 10.00 Overcast BKN033 OVC046 67.1 65.7 95% 30.17 0.0
20 07:09 Calm 10.00 Light Drizzle BKN033 OVC046 66.6 65.3 96% 30.17 0.0
20 06:49 Calm 10.00 Rain SCT033 BKN046 OVC065 66.7 65.3 95% 30.16 0.0 0.01
20 06:29 Calm 10.00 Rain BKN046 OVC065 66.6 65.3 96% 30.15 0.0 0.01
20 06:09 Calm 10.00 Light Rain SCT035 BKN049 OVC075 66.7 65.3 95% 30.15 0.0
20 05:49 Calm 10.00 Overcast SCT035 BKN049 OVC110 66.6 65.3 96% 30.15 0.0
20 05:29 Calm 10.00 Light Drizzle SCT011 BKN037 OVC110 66.6 65.3 96% 30.15 0.0
20 05:09 Calm 5.00 Light Drizzle BKN011 OVC022 66.6 65.3 96% 30.15 0.0
20 04:49 Calm 7.00 Light Rain SCT011 BKN080 OVC110 66.7 65.5 96% 30.14 0.0
20 04:29 Calm 10.00 Overcast SCT012 BKN080 OVC110 67.1 65.7 95% 30.14 0.0
20 04:09 Calm 10.00 Overcast SCT004 BKN011 OVC110 66.7 65.5 96% 30.13 0.0
20 03:49 Calm 10.00 Overcast BKN006 OVC009 67.1 65.7 95% 30.13 0.0
20 03:29 Calm 7.00 Overcast OVC004 67.1 65.8 96% 30.14 0.0
20 03:09 Calm 7.00 Light Drizzle OVC004 67.5 66.2 96% 30.14 0.0
20 02:49 Calm 7.00 Light Drizzle BKN004 BKN020 OVC100 67.1 65.8 96% 30.14 0.0 0.01
20 02:29 Calm 7.00 Light Drizzle SCT004 BKN045 OVC100 67.1 65.7 95% 30.15 0.0
20 02:09 Calm 10.00 Drizzle BKN004 BKN033 OVC060 67.1 65.7 95% 30.16 0.0
20 01:49 Calm 7.00 Overcast SCT004 BKN060 OVC110 66.7 65.3 95% 30.16 0.0
20 01:29 Calm 10.00 Overcast SCT004 BKN095 OVC110 66.7 65.5 96% 30.16 0.0
20 01:09 Calm 10.00 Overcast SCT004 BKN095 OVC110 66.7 65.5 96% 30.16 0.0
20 00:49 Calm 7.00 Mostly Cloudy SCT006 BKN095 BKN110 66.6 65.3 96% 30.16 0.0
20 00:29 Calm 10.00 Partly Cloudy SCT004 SCT033 SCT080 66.4 65.3 96% 30.16 0.0
20 00:09 Calm 10.00 Mostly Cloudy BKN004 BKN033 BKN080 66.9 65.7 96% 30.16 0.0
19 23:49 Calm 10.00 Partly Cloudy SCT004 67.3 66 96% 30.16 0.0
19 23:29 Calm 10.00 Partly Cloudy SCT004 67.3 66.2 96% 30.16 0.0
19 23:09 Calm 10.00 Partly Cloudy SCT007 67.5 66.2 96% 30.16 0.0
19 22:49 Calm 10.00 Mostly Cloudy BKN007 BKN050 67.8 66.4 95% 30.16 0.0
19 22:29 Calm 10.00 Partly Cloudy SCT050 68 66.6 95% 30.15 0.0
19 22:09 Calm 10.00 Partly Cloudy SCT007 68 66.6 95% 30.16 0.0
19 21:49 Calm 10.00 Partly Cloudy SCT007 68.2 66.7 95% 30.15 0.0
19 21:29 Calm 10.00 Partly Cloudy SCT060 SCT070 SCT095 68.4 66.7 95% 30.14 0.0
19 21:09 Calm 10.00 Drizzle SCT060 SCT070 BKN120 68.9 66.7 93% 30.14 0.0
19 20:49 Calm 10.00 Light Rain SCT075 SCT085 BKN110 69.3 67.1 93% 30.14 0.0 0.02
19 20:29 Calm 10.00 Light Rain SCT075 SCT085 BKN110 69.8 66.7 90% 30.14 0.0 0.01
19 20:09 Calm 10.00 Partly Cloudy SCT100 SCT120 70.3 65.8 86% 30.14 0.0
19 19:49 Calm 10.00 Fair CLR 70.9 66.6 86% 30.14 0.0
19 19:29 W 3 10.00 Fair CLR 71.6 68 88% 30.13 0.0
19 19:09 Calm 10.00 Fair CLR 71.6 67.8 88% 30.12 0.0
19 18:49 NE 5 10.00 Fair CLR 71.6 68 88% 30.11 0.0
19 18:29 E 5 10.00 Fair CLR 71.6 67.6 87% 30.11 0.0
19 18:09 E 6 10.00 Partly Cloudy SCT010 SCT019 SCT045 71.8 67.5 86% 30.12 0.0
19 17:49 NE 5 10.00 Mostly Cloudy SCT013 SCT019 BKN041 73.4 69.1 86% 30.13 0.0 0.01
19 17:29 N 5 10.00 Light Drizzle SCT009 BKN013 OVC021 72.5 67.8 85% 30.13 0.0 0.01
19 17:09 Calm 7.00 Light Rain BKN011 BKN017 OVC027 70.5 67.6 91% 30.14 0.0 0.01
19 16:49 Calm 4.00 Heavy Rain SCT017 BKN027 OVC080 71.8 66.6 84% 30.13 0.0 0.09
19 16:29 S 3 7.00 Rain SCT041 BKN080 OVC090 73.4 68 83% 30.13 0.0 0.03
19 16:09 Calm 10.00 Rain OVC039 75.2 68.2 79% 76 30.12 0.0 0.01
19 15:49 S 3 10.00 Light Rain BKN035 OVC044 77.7 67.5 71% 80 30.12 0.0
19 15:29 SW 6 10.00 Overcast OVC035 78.8 66.2 65% 81 30.11 0.0
19 15:09 S 6 10.00 Overcast BKN037 BKN047 OVC060 79.7 66.7 65% 82 30.1 0.0
19 14:49 Calm 10.00 Partly Cloudy SCT039 SCT055 SCT080 81.1 65.7 59% 83 30.12 0.0
19 14:29 NW 3 10.00 Partly Cloudy SCT048 SCT055 SCT075 82.2 66 58% 84 30.12 0.0
19 14:09 W 3 10.00 Mostly Cloudy SCT039 SCT044 BKN080 79.9 66.4 64% 82 30.13 0.0
19 13:49 W 8 10.00 Partly Cloudy SCT042 81.3 67.3 62% 84 30.14 0.0
Date Time (edt) Wind (mph) Vis. (mi.) Weather Sky Cond. Air Dwpt Max. Min. Relative Humidity Wind Chill (°F) Heat Index (°F) altimeter (in) sea level (mb) 1 hr 3 hr 6 hr
6 hour
Temperature (ºF) Pressure Precipitation (in)